When you browse on this site, cookies collect data to enhance your experience and personalize the content and advertising you see.
Visit our Privacy Policy to learn more. By continuing to use the site, you agree to this use of cookies and data.
  • In Switzerland
  • List of Countries
  • For 7 days
  • Water Temperature
  • Satellite Maps
  • Weather Map
  • Weather Widgets
  • user-avatar
    Login

    Hourly Weather Tomashivka

    Today, 22 April, Monday

    Time Temperature Precipitation Wind Pressure Humidity
    00:00 +9°C° 0 mm 2 mps 757 mmHg 50%
    01:00 +9°C° 0 mm 2 mps 757 mmHg 50%
    02:00 +9°C° 0 mm 2 mps 757 mmHg 50%
    03:00 +8°C° 0 mm 2 mps 757 mmHg 51%
    04:00 +8°C° 0 mm 2 mps 757 mmHg 52%
    05:00 +7°C° 0 mm 2 mps 758 mmHg 54%
    06:00 +9°C° 0 mm 2 mps 758 mmHg 53%
    07:00 +10°C° 0 mm 2 mps 758 mmHg 51%
    08:00 +11°C° 0 mm 3 mps 759 mmHg 50%
    09:00 +12°C° 0 mm 3 mps 759 mmHg 44%
    10:00 +13°C° 0 mm 3 mps 759 mmHg 38%
    11:00 +16°C° 0 mm 3 mps 759 mmHg 33%
    12:00 +16°C° 0 mm 3 mps 759 mmHg 32%
    13:00 +16°C° 0 mm 3 mps 759 mmHg 32%
    14:00 +16°C° 0 mm 3 mps 759 mmHg 32%
    15:00 +16°C° 0 mm 3 mps 759 mmHg 34%
    16:00 +16°C° 0 mm 2 mps 759 mmHg 36%
    17:00 +15°C° 0 mm 2 mps 759 mmHg 37%
    18:00 +14°C° 0 mm 2 mps 759 mmHg 40%
    19:00 +13°C° 0 mm 2 mps 759 mmHg 44%
    20:00 +11°C° 0 mm 1 mps 759 mmHg 47%
    21:00 +11°C° 0 mm 1 mps 760 mmHg 48%
    22:00 +10°C° 0 mm 1 mps 760 mmHg 49%
    23:00 +10°C° 0 mm 1 mps 760 mmHg 49%

    Tomorrow, 23 April, Tuesday

    Time Temperature Precipitation Wind Pressure Humidity
    00:00 +10°C° 0 mm 1 mps 760 mmHg 50%
    01:00 +9°C° 0 mm 1 mps 760 mmHg 50%
    02:00 +9°C° 0 mm 1 mps 761 mmHg 50%
    03:00 +9°C° 0 mm 1 mps 761 mmHg 51%
    04:00 +7°C° 0 mm 2 mps 761 mmHg 52%
    05:00 +7°C° 0 mm 2 mps 761 mmHg 53%
    06:00 +9°C° 0 mm 2 mps 761 mmHg 51%
    07:00 +10°C° 0 mm 2 mps 761 mmHg 50%
    08:00 +13°C° 0 mm 2 mps 761 mmHg 48%
    09:00 +15°C° 0 mm 2 mps 761 mmHg 43%
    10:00 +16°C° 0 mm 2 mps 761 mmHg 38%
    11:00 +17°C° 0 mm 2 mps 761 mmHg 33%
    12:00 +17°C° 0 mm 2 mps 761 mmHg 33%
    13:00 +17°C° 0 mm 2 mps 761 mmHg 33%
    14:00 +18°C° 0 mm 2 mps 761 mmHg 33%
    15:00 +17°C° 0 mm 2 mps 761 mmHg 35%
    16:00 +17°C° 0 mm 2 mps 760 mmHg 38%
    17:00 +17°C° 0 mm 2 mps 760 mmHg 40%
    18:00 +16°C° 0 mm 2 mps 760 mmHg 43%
    19:00 +15°C° 0 mm 2 mps 760 mmHg 46%
    20:00 +13°C° 0 mm 1 mps 760 mmHg 50%
    21:00 +13°C° 0 mm 1 mps 761 mmHg 52%
    22:00 +12°C° 0 mm 1 mps 761 mmHg 54%
    23:00 +11°C° 0 mm 1 mps 761 mmHg 57%

    Day after tomorrow, 24 April, Wednesday

    Time Temperature Precipitation Wind Pressure Humidity
    00:00 +11°C° 0 mm 1 mps 761 mmHg 57%
    01:00 +11°C° 0 mm 1 mps 761 mmHg 58%
    02:00 +11°C° 0 mm 1 mps 761 mmHg 58%
    03:00 +11°C° 0 mm 1 mps 761 mmHg 59%
    04:00 +10°C° 0 mm 0 mps 761 mmHg 59%
    05:00 +10°C° 0 mm 0 mps 761 mmHg 59%
    06:00 +12°C° 0 mm 0 mps 761 mmHg 56%
    07:00 +14°C° 0 mm 1 mps 761 mmHg 52%
    08:00 +15°C° 0 mm 1 mps 762 mmHg 48%
    09:00 +16°C° 0 mm 1 mps 761 mmHg 44%
    10:00 +17°C° 0 mm 2 mps 761 mmHg 39%
    11:00 +18°C° 0 mm 2 mps 761 mmHg 35%
    12:00 +19°C° 0 mm 2 mps 761 mmHg 34%
    13:00 +19°C° 0 mm 2 mps 761 mmHg 34%
    14:00 +19°C° 0 mm 2 mps 761 mmHg 34%
    15:00 +19°C° 0 mm 2 mps 761 mmHg 35%
    16:00 +20°C° 0 mm 1 mps 760 mmHg 36%
    17:00 +20°C° 0 mm 1 mps 760 mmHg 37%
    18:00 +18°C° 0 mm 1 mps 760 mmHg 41%
    19:00 +15°C° 0 mm 0 mps 760 mmHg 45%
    20:00 +13°C° 0 mm 0 mps 760 mmHg 48%
    21:00 +13°C° 0 mm 0 mps 761 mmHg 50%
    22:00 +12°C° 0 mm 0 mps 761 mmHg 51%
    23:00 +12°C° 0 mm 0 mps 761 mmHg 53%

    25 April, Thursday

    Time Temperature Precipitation Wind Pressure Humidity
    00:00 +11°C° 0 mm 0 mps 761 mmHg 54%
    01:00 +11°C° 0 mm 0 mps 761 mmHg 55%
    02:00 +11°C° 0 mm 0 mps 761 mmHg 56%
    03:00 +11°C° 0 mm 1 mps 761 mmHg 57%
    04:00 +11°C° 0 mm 1 mps 761 mmHg 59%
    05:00 +11°C° 0 mm 1 mps 761 mmHg 60%
    06:00 +13°C° 0 mm 1 mps 761 mmHg 56%
    07:00 +14°C° 0 mm 1 mps 761 mmHg 53%
    08:00 +16°C° 0 mm 1 mps 761 mmHg 49%
    09:00 +18°C° 0 mm 1 mps 761 mmHg 45%
    10:00 +19°C° 0 mm 2 mps 761 mmHg 41%
    11:00 +20°C° 0 mm 2 mps 761 mmHg 37%
    12:00 +20°C° 0 mm 2 mps 761 mmHg 37%
    13:00 +21°C° 0 mm 2 mps 760 mmHg 36%
    14:00 +21°C° 0 mm 2 mps 760 mmHg 36%
    15:00 +21°C° 0 mm 2 mps 760 mmHg 38%
    16:00 +21°C° 0 mm 2 mps 759 mmHg 40%
    17:00 +21°C° 0 mm 2 mps 759 mmHg 42%
    18:00 +19°C° 0 mm 2 mps 759 mmHg 46%
    19:00 +19°C° 0 mm 1 mps 759 mmHg 50%
    20:00 +16°C° 0 mm 1 mps 758 mmHg 54%
    21:00 +15°C° 0 mm 1 mps 758 mmHg 55%
    22:00 +15°C° 0 mm 1 mps 758 mmHg 57%
    23:00 +14°C° 0 mm 1 mps 758 mmHg 58%

    26 April, Friday

    Time Temperature Precipitation Wind Pressure Humidity
    00:00 +14°C° 0 mm 1 mps 758 mmHg 58%
    01:00 +14°C° 0 mm 1 mps 758 mmHg 58%
    02:00 +13°C° 0 mm 1 mps 758 mmHg 58%
    03:00 +13°C° 0 mm 1 mps 758 mmHg 60%
    04:00 +13°C° 0 mm 1 mps 757 mmHg 62%
    05:00 +12°C° 0 mm 1 mps 757 mmHg 64%
    06:00 +14°C° 0 mm 2 mps 757 mmHg 61%
    07:00 +16°C° 0 mm 2 mps 757 mmHg 58%
    08:00 +18°C° 0 mm 2 mps 757 mmHg 54%
    09:00 +19°C° 0 mm 3 mps 757 mmHg 51%
    10:00 +20°C° 0 mm 4 mps 756 mmHg 48%
    11:00 +22°C° 0 mm 4 mps 756 mmHg 45%
    12:00 +22°C° 0 mm 5 mps 756 mmHg 44%
    13:00 +22°C° 0 mm 5 mps 755 mmHg 43%
    14:00 +23°C° 0 mm 5 mps 755 mmHg 42%
    15:00 +23°C° 0 mm 4 mps 754 mmHg 45%
    16:00 +22°C° 0 mm 4 mps 754 mmHg 47%
    17:00 +22°C° 0 mm 3 mps 754 mmHg 49%
    18:00 +21°C° 0 mm 3 mps 754 mmHg 53%
    19:00 +19°C° 0 mm 2 mps 754 mmHg 57%
    20:00 +18°C° 0 mm 2 mps 754 mmHg 61%
    21:00 +17°C° 0 mm 2 mps 753 mmHg 63%
    22:00 +17°C° 0 mm 3 mps 753 mmHg 64%
    23:00 +16°C° 0 mm 3 mps 753 mmHg 66%

    27 April, Saturday

    Time Temperature Precipitation Wind Pressure Humidity
    00:00 +14°C° 0 mm 3 mps 753 mmHg 66%
    01:00 +14°C° 0 mm 3 mps 753 mmHg 66%
    02:00 +14°C° 0 mm 2 mps 753 mmHg 66%
    03:00 +14°C° 0 mm 2 mps 753 mmHg 69%
    04:00 +14°C° 0 mm 2 mps 753 mmHg 72%
    05:00 +13°C° 0 mm 1 mps 753 mmHg 74%
    06:00 +15°C° 0 mm 2 mps 753 mmHg 69%
    07:00 +17°C° 0 mm 2 mps 753 mmHg 64%
    08:00 +18°C° 0 mm 2 mps 754 mmHg 59%
    09:00 +20°C° 0 mm 2 mps 754 mmHg 53%
    10:00 +21°C° 0 mm 3 mps 754 mmHg 47%
    11:00 +22°C° 0 mm 3 mps 754 mmHg 41%
    12:00 +24°C° 0 mm 3 mps 754 mmHg 40%
    13:00 +24°C° 0 mm 3 mps 753 mmHg 40%
    14:00 +24°C° 0 mm 3 mps 753 mmHg 40%
    15:00 +23°C° 0 mm 2 mps 753 mmHg 42%
    16:00 +23°C° 0 mm 2 mps 753 mmHg 44%
    17:00 +21°C° 0 mm 2 mps 753 mmHg 47%
    18:00 +20°C° 0 mm 2 mps 753 mmHg 48%
    19:00 +20°C° 0 mm 1 mps 753 mmHg 50%
    20:00 +19°C° 0 mm 1 mps 754 mmHg 51%
    21:00 +19°C° 0 mm 1 mps 754 mmHg 52%
    22:00 +19°C° 0 mm 1 mps 754 mmHg 53%
    23:00 +18°C° 0 mm 1 mps 754 mmHg 54%
    Show more